THORAD AGENA D DEB, 4611

Orbit data source: Space-Track

THORAD AGENA D DEB, 4611 is space debris in SSO originally from a launch on Wed, 08 Apr 1970 UTC launched from the Air Force Western Test Range (AFWTR). Debris objects in space refer to the collection of defunct objects orbiting the Earth. Examples of debris include non-operational satellites, rocket bodies, and fragments generated from explosions, collisions, or faulty payload assembly.

Loading next visibility...
Identifier
4611, 1970-025P
Orbit
SSO
Country
Flag of USUS
Related business
Manufacturer
Unknown
Mission
Spacecraft
Bus & Motor
Unknown
Mass
Unknown
Launch date (UTC)
1970-04-08 (56 years ago)
Launch vehicle
Unknown
Launch site
Air Force Western Test Range (AFWTR)
Object type
Payload
Rocket body
Debris
Shape & HBR
Unknown shape, 0.2 m
Radar Cross Section
Medium (>0.1 m² and <1 m²)

Expand to show TLE details & history
Last TLE update: 15 hours ago

TLE from 15 hours ago
0 THORAD AGENA D DEB
1 04611U 70025P   25292.24797085  .00001472  00000-0  90841-3 0  9997
2 04611  99.8568 270.6350 0125038  37.8923 323.0960 14.03414112821895
Epoch: 2025-10-19T05:57Z
TLE epoch observation values (Epoch: 2025-10-19T05:57:04.681Z)
Latitude
-0.00002°
Longitude
153.39813°
Altitude
812.66 km
Speed
7.484 km/s
True Right ascension
18h 02m 32s
True Declination
0° 00' 00"
Sunlit
Object was in daylight at epoch
Visualization orbit readout
Latitude
Unknown
Longitude
Unknown
Altitude
Unknown
Speed
Unknown
Apparent Right ascension
Unknown
Apparent Declination
Unknown
Sunlit
N/A
Visualization observer readout
Local Sidereal Time
15:32:03
Azimuth
Unknown
Elevation
Unknown
Doppler factor
Unknown
Orbital elements
Apogee altitude
969.98 km
Perigee altitude
788.49 km
Semi-major axis
7,257.372 km
Eccentricity
0.0125
Inclination
99.8568°
RAAN
270.635°
Arg. of periapsis
37.8923°
True anomaly
322.22477°
Mean anomaly
323.096°
Eccentric anomaly
322.66148°
Mean motion
3.51054 °/min
Orbital period
102.55 mins
BSTAR
0.00090841
Loading maneuver chart data...
Computing Atmospheric mass density...

Documentation

Showing up to 5 results
|